Flag for Brazil Weather past 2 weeks in Santa María, Rio Grande do Sul, Brazil

Now
59 °F

Fog.


Feels Like: 59 °F
Forecast: 52 / 77 °F
Wind: 2 mph from North

Location: Porto Alegre Aero-Porto

Current Time: Jul 28, 2015 at 6:04:09 AM

Latest Report: Jul 28, 2015 at 5:00 AM


Visibility: 1 mi

Pressure: 30.01 "Hg

Humidity: 94%

Dew point: 57 °F

Location of Santa MaríaLocation

Historic Weather in Santa María — Graph

°F

Santa María temperature yesterday

Maximum temperature yesterday: 70 °F (at 2:00 PM)
Minimum temperature yesterday: 59 °F (at 4:00 AM)
Average temperature yesterday: 63 °F

Past Weeks' High & Low Weather Summary

 TemperatureHumidityPressure
High72 °F (Jul 18, 3:00 PM)100% (Jul 13, 6:00 AM)30.33 "Hg (Jul 13, 6:00 AM)
Low43 °F (Jul 19, 2:00 AM)32% (Jul 19, 10:00 PM)29.50 "Hg (Jul 13, 6:00 PM)
Average59 °F86%30.12 "Hg
* Reported Jul 13 5:00 AM — Jul 28 5:00 AM, Santa María, Weather by CustomWeather, © 2015

Note: Actual official high and low records may vary slightly from our data, if they occured in-between our weather recording intervals... More about our weather records

Advertising

Santa María weather history for previous 24 hours

 ConditionsComfort  
Time TempWeatherWind HumidityBarometerVisibility
5:00 AM
Tue, Jul 28
59 °FFog.2 mph94%N/A1 mi
4:00 AM59 °FFog.6 mph94%30.01 "Hg1 mi
3:00 AM59 °FFog.8 mph94%30.01 "Hg2 mi
2:00 AM59 °FFog.8 mph100%30.04 "Hg2 mi
1:00 AM59 °FFog.8 mph100%30.04 "Hg2 mi
12:00 AM59 °FFog.7 mph94%30.04 "Hg2 mi
11:00 PM
Mon, Jul 27
59 °FFog.6 mph94%30.04 "Hg1 mi
10:00 PM59 °FFog.9 mph94%30.04 "Hg2 mi
9:00 PM61 °FClear.8 mph88%30.07 "Hg10 mi
8:00 PM63 °FClear.7 mph88%30.07 "Hg10 mi
7:00 PM64 °FClear.7 mph83%30.04 "Hg10 mi
6:00 PM66 °FClear.5 mph73%30.01 "Hg10 mi
5:00 PM70 °FClear.3 mph64%30.01 "Hg10 mi
4:00 PM70 °FPassing clouds.5 mph64%30.01 "HgN/A
3:00 PM70 °FScattered clouds.5 mph64%30.04 "HgN/A
2:00 PM70 °FScattered clouds.3 mph64%30.04 "HgN/A
1:00 PM68 °FScattered clouds.6 mph69%30.07 "HgN/A
12:00 PM68 °FScattered clouds.8 mph73%30.09 "HgN/A
11:00 AM66 °FScattered clouds.5 mph68%30.12 "HgN/A
10:00 AM66 °FPassing clouds.1 mph73%30.12 "HgN/A
9:00 AM61 °FScattered clouds.3 mph94%30.12 "HgN/A
8:00 AM59 °FPartly sunny.No wind94%30.12 "Hg5 mi
7:00 AM59 °FPartly sunny.3 mph94%30.09 "Hg4 mi
6:00 AM59 °FPartly cloudy.2 mph94%30.09 "Hg5 mi
Weather by CustomWeather, © 2015

See weather overviewHow to use our weather pages